HAZ2814 ZUUU-ZYTX

Flight info

Callsign HAZ2814
Flight time 2h 45m
Altitude 35100
Route GURET6N GURET W233 AGULU W81 APIMI W275 NSH G212 VYK W34 PAMRU W244 IGMOR W36 ENVAV W243 OTBUL W35 CHG A575 OMDUS OMD74A
Aircraft A321/M-SDE3FGHIRWY/LB1

Departure

Time 2026-04-21 08:17
Airport Chengdu Shuangliu International Airport (ZUUU)

Arrival

Time 2026-04-21 11:02
Airport Shenyang Taoxian International Airport (ZYTX)
Time Latitude Longitude Altitude Speed Heading
2026-04-21 07:50 30.57381 103.95140 1647 ft 0 kts 200°
2026-04-21 08:08 30.57387 103.95143 1647 ft 4 kts 200°
2026-04-21 08:08 30.57413 103.95154 1647 ft 4 kts 200°
2026-04-21 08:08 30.57438 103.95165 1647 ft 4 kts 208°
2026-04-21 08:09 30.57455 103.95182 1647 ft 4 kts 268°
2026-04-21 08:09 30.57452 103.95200 1647 ft 4 kts 286°
2026-04-21 08:09 30.57448 103.95217 1647 ft 0 kts 286°
2026-04-21 08:11 30.57452 103.95201 1647 ft 5 kts 289°
2026-04-21 08:11 30.57472 103.95138 1647 ft 10 kts 290°
2026-04-21 08:11 30.57496 103.95069 1647 ft 9 kts 292°
2026-04-21 08:12 30.57522 103.94996 1647 ft 9 kts 292°
2026-04-21 08:12 30.57547 103.94926 1647 ft 10 kts 289°
2026-04-21 08:12 30.57514 103.94854 1647 ft 13 kts 206°
2026-04-21 08:12 30.57422 103.94810 1647 ft 17 kts 202°
2026-04-21 08:13 30.57297 103.94751 1647 ft 22 kts 202°
2026-04-21 08:13 30.57152 103.94682 1647 ft 22 kts 202°
2026-04-21 08:13 30.57016 103.94620 1647 ft 20 kts 198°
2026-04-21 08:13 30.56887 103.94576 1647 ft 18 kts 198°
2026-04-21 08:14 30.56774 103.94524 1647 ft 17 kts 202°
2026-04-21 08:14 30.56659 103.94469 1647 ft 20 kts 202°
2026-04-21 08:14 30.56521 103.94403 1647 ft 21 kts 201°
2026-04-21 08:14 30.56390 103.94342 1647 ft 19 kts 202°
2026-04-21 08:15 30.56282 103.94284 1647 ft 14 kts 225°
2026-04-21 08:15 30.56291 103.94184 1647 ft 12 kts 290°
2026-04-21 08:15 30.56322 103.94093 1647 ft 14 kts 293°
2026-04-21 08:15 30.56380 103.94022 1647 ft 12 kts
2026-04-21 08:16 30.56457 103.94055 1648 ft 14 kts 21°
2026-04-21 08:16 30.56687 103.94162 1649 ft 67 kts 22°
2026-04-21 08:16 30.57304 103.94448 1645 ft 122 kts 21°
2026-04-21 08:16 30.58230 103.94876 1647 ft 163 kts 22°
2026-04-21 08:17 30.59372 103.95425 1729 ft 189 kts 23°
2026-04-21 08:17 30.60632 103.95775 2266 ft 187 kts 359°
2026-04-21 08:17 30.61870 103.95347 2782 ft 188 kts 338°
2026-04-21 08:17 30.63033 103.94683 3395 ft 185 kts 337°
2026-04-21 08:18 30.64188 103.94033 3803 ft 185 kts 336°
2026-04-21 08:18 30.65342 103.93389 4239 ft 184 kts 337°
2026-04-21 08:18 30.66496 103.92747 4630 ft 186 kts 336°
2026-04-21 08:18 30.67713 103.92074 4779 ft 201 kts 337°
2026-04-21 08:19 30.69029 103.91347 4900 ft 218 kts 337°
2026-04-21 08:19 30.70462 103.90555 5019 ft 240 kts 337°
2026-04-21 08:19 30.72039 103.89680 5265 ft 260 kts 337°
2026-04-21 08:19 30.73727 103.88862 5871 ft 263 kts 351°
2026-04-21 08:20 30.75506 103.89036 6545 ft 259 kts 24°
2026-04-21 08:20 30.76998 103.90220 7142 ft 263 kts 39°
2026-04-21 08:20 30.78435 103.91570 7730 ft 268 kts 38°
2026-04-21 08:20 30.79910 103.92923 8344 ft 272 kts 37°
2026-04-21 08:21 30.81419 103.94289 8977 ft 277 kts 37°
2026-04-21 08:21 30.82950 103.95666 9586 ft 281 kts 37°
2026-04-21 08:21 30.84519 103.97071 10060 ft 289 kts 36°
2026-04-21 08:21 30.86167 103.98543 10201 ft 310 kts 37°
2026-04-21 08:22 30.87324 103.99579 10285 ft 323 kts 37°
2026-04-21 08:22 30.89156 104.01221 10408 ft 342 kts 37°
2026-04-21 08:22 30.91095 104.02958 10527 ft 361 kts 37°
2026-04-21 08:22 30.93132 104.04785 10647 ft 378 kts 37°
2026-04-21 08:23 30.95242 104.06684 10950 ft 387 kts 37°
2026-04-21 08:23 30.97387 104.08617 11393 ft 392 kts 38°
2026-04-21 08:23 30.99550 104.10572 11840 ft 396 kts 38°
2026-04-21 08:23 31.01743 104.12553 12239 ft 401 kts 38°
2026-04-21 08:24 31.03957 104.14556 12666 ft 405 kts 38°
2026-04-21 08:24 31.06069 104.16740 13048 ft 408 kts 48°
2026-04-21 08:24 31.07793 104.19380 13440 ft 411 kts 59°
2026-04-21 08:24 31.09046 104.22373 13797 ft 413 kts 70°
2026-04-21 08:25 31.09773 104.25631 14049 ft 419 kts 81°
2026-04-21 08:25 31.10193 104.29006 14369 ft 422 kts 82°
2026-04-21 08:25 31.10619 104.32403 14710 ft 425 kts 82°
2026-04-21 08:25 31.11054 104.35829 15010 ft 429 kts 81°
2026-04-21 08:26 31.11492 104.39280 15387 ft 431 kts 81°
2026-04-21 08:26 31.11937 104.42751 15715 ft 434 kts 81°
2026-04-21 08:26 31.12384 104.46248 16075 ft 437 kts 81°
2026-04-21 08:26 31.12827 104.49762 16444 ft 439 kts 81°
2026-04-21 08:27 31.13273 104.53299 16798 ft 442 kts 81°
2026-04-21 08:27 31.13720 104.56854 17172 ft 444 kts 81°
2026-04-21 08:27 31.14166 104.60430 17520 ft 447 kts 82°
2026-04-21 08:27 31.14612 104.64027 17873 ft 449 kts 81°
2026-04-21 08:28 31.15061 104.67644 18220 ft 452 kts 81°
2026-04-21 08:28 31.15511 104.71286 18515 ft 455 kts 82°
2026-04-21 08:28 31.15964 104.74947 18816 ft 457 kts 82°
2026-04-21 08:28 31.16419 104.78632 19120 ft 460 kts 82°
2026-04-21 08:29 31.16875 104.82337 19424 ft 462 kts 82°
2026-04-21 08:29 31.17333 104.86063 19724 ft 465 kts 82°
2026-04-21 08:29 31.17793 104.89811 20024 ft 468 kts 82°
2026-04-21 08:29 31.18256 104.93581 20317 ft 470 kts 81°
2026-04-21 08:30 31.18720 104.97372 20618 ft 473 kts 82°
2026-04-21 08:30 31.19185 105.01185 20891 ft 476 kts 81°
2026-04-21 08:30 31.19652 105.05025 21175 ft 479 kts 81°
2026-04-21 08:30 31.20121 105.08884 21472 ft 481 kts 82°
2026-04-21 08:31 31.20583 105.12710 21759 ft 484 kts 82°
2026-04-21 08:31 31.21060 105.16663 22060 ft 486 kts 82°
2026-04-21 08:31 31.21528 105.20580 22347 ft 488 kts 82°
2026-04-21 08:31 31.21996 105.24514 22631 ft 490 kts 82°
2026-04-21 08:32 31.22459 105.28418 22914 ft 493 kts 82°
2026-04-21 08:32 31.23066 105.32411 23192 ft 494 kts 75°
2026-04-21 08:32 31.24135 105.36172 23453 ft 495 kts 66°
2026-04-21 08:32 31.25692 105.39763 23672 ft 496 kts 57°
2026-04-21 08:33 31.27593 105.43125 23880 ft 497 kts 54°
2026-04-21 08:33 31.29529 105.46486 24101 ft 499 kts 54°
2026-04-21 08:33 31.31467 105.49864 24345 ft 501 kts 54°
2026-04-21 08:33 31.33406 105.53259 24571 ft 503 kts 54°
2026-04-21 08:34 31.35353 105.56675 24806 ft 505 kts 54°
2026-04-21 08:34 31.37303 105.60103 25048 ft 507 kts 54°
2026-04-21 08:34 31.39261 105.63545 25298 ft 509 kts 54°
2026-04-21 08:34 31.41228 105.67002 25520 ft 511 kts 54°
2026-04-21 08:35 31.43199 105.70466 25826 ft 511 kts 54°
2026-04-21 08:35 31.45170 105.73926 26163 ft 510 kts 54°
2026-04-21 08:35 31.47136 105.77384 26478 ft 510 kts 54°
2026-04-21 08:35 31.49099 105.80845 26765 ft 510 kts 54°
2026-04-21 08:36 31.51059 105.84308 27080 ft 510 kts 54°
2026-04-21 08:36 31.53022 105.87772 27401 ft 510 kts 54°
2026-04-21 08:36 31.54983 105.91236 27709 ft 510 kts 54°
2026-04-21 08:36 31.56940 105.94701 28014 ft 510 kts 54°
2026-04-21 08:37 31.58900 105.98168 28301 ft 510 kts 54°
2026-04-21 08:37 31.60861 106.01633 28609 ft 510 kts 54°
2026-04-21 08:37 31.62825 106.05108 28866 ft 511 kts 54°
2026-04-21 08:37 31.64790 106.08590 29136 ft 512 kts 54°
2026-04-21 08:38 31.66752 106.12073 29417 ft 512 kts 54°
2026-04-21 08:38 31.68714 106.15563 29717 ft 512 kts 54°
2026-04-21 08:38 31.70675 106.19048 29997 ft 511 kts 54°
2026-04-21 08:38 31.72637 106.22534 30233 ft 512 kts 54°
2026-04-21 08:39 31.74594 106.26026 30447 ft 511 kts 54°
2026-04-21 08:39 31.76549 106.29517 30699 ft 511 kts 54°
2026-04-21 08:39 31.78498 106.33004 30978 ft 510 kts 54°
2026-04-21 08:39 31.80444 106.36489 31245 ft 510 kts 54°
2026-04-21 08:40 31.82385 106.39970 31552 ft 508 kts 54°
2026-04-21 08:40 31.84323 106.43442 31804 ft 507 kts 54°
2026-04-21 08:40 31.86260 106.46902 32057 ft 506 kts 54°
2026-04-21 08:40 31.88192 106.50358 32318 ft 506 kts 54°
2026-04-21 08:41 31.90120 106.53818 32581 ft 505 kts 54°
2026-04-21 08:41 31.92041 106.57273 32835 ft 504 kts 54°
2026-04-21 08:41 31.93958 106.60721 33076 ft 503 kts 54°
2026-04-21 08:41 31.95847 106.64128 33356 ft 503 kts 54°
2026-04-21 08:42 31.97757 106.67572 33633 ft 502 kts 54°
2026-04-21 08:42 31.99660 106.71008 33845 ft 501 kts 54°
2026-04-21 08:42 32.01560 106.74445 34049 ft 500 kts 54°
2026-04-21 08:42 32.03458 106.77876 34243 ft 500 kts 54°
2026-04-21 08:43 32.05361 106.81313 34417 ft 501 kts 53°
2026-04-21 08:43 32.07266 106.84758 34583 ft 502 kts 53°
2026-04-21 08:43 32.09170 106.88206 34752 ft 502 kts 53°
2026-04-21 08:43 32.11079 106.91664 34919 ft 503 kts 53°
2026-04-21 08:44 32.12992 106.95129 35007 ft 505 kts 53°
2026-04-21 08:44 32.16825 107.02082 35019 ft 505 kts 53°
2026-04-21 08:45 32.20646 107.09051 35032 ft 505 kts 53°
2026-04-21 08:45 32.24460 107.16030 35042 ft 506 kts 54°
2026-04-21 08:46 32.27542 107.23534 35039 ft 512 kts 68°
2026-04-21 08:46 32.29971 107.31446 35039 ft 512 kts 68°
2026-04-21 08:47 32.32411 107.39361 35050 ft 512 kts 68°
2026-04-21 08:47 32.34843 107.47264 35065 ft 512 kts 68°
2026-04-21 08:48 32.37268 107.55184 35065 ft 512 kts 68°
2026-04-21 08:48 32.39684 107.63105 35076 ft 512 kts 68°
2026-04-21 08:49 32.42107 107.71033 35091 ft 513 kts 68°
2026-04-21 08:49 32.44516 107.78969 35091 ft 511 kts 69°
2026-04-21 08:50 32.46903 107.86886 35094 ft 510 kts 69°
2026-04-21 08:50 32.49569 107.94644 35103 ft 506 kts 57°
2026-04-21 08:50 32.51539 107.98067 35106 ft 501 kts 46°
2026-04-21 08:51 32.53933 108.01027 35096 ft 495 kts 36°
2026-04-21 08:51 32.59640 108.05308 35118 ft 480 kts 16°
2026-04-21 08:52 32.65945 108.07689 35124 ft 475 kts 10°
2026-04-21 08:52 32.72288 108.09938 35116 ft 476 kts 10°
2026-04-21 08:53 32.78627 108.12192 35117 ft 475 kts 10°
2026-04-21 08:53 32.84966 108.14429 35121 ft 475 kts 10°
2026-04-21 08:54 32.91310 108.16679 35119 ft 476 kts 10°
2026-04-21 08:54 32.97667 108.18943 35118 ft 477 kts 11°
2026-04-21 08:55 33.03983 108.21198 35115 ft 477 kts 11°
2026-04-21 08:55 33.10390 108.23492 35114 ft 477 kts 10°
2026-04-21 08:56 33.16760 108.25764 35110 ft 479 kts 10°
2026-04-21 08:56 33.23106 108.28024 35111 ft 479 kts 11°
2026-04-21 08:57 33.29494 108.30321 35107 ft 479 kts 11°
2026-04-21 08:57 33.35692 108.33446 35133 ft 488 kts 21°
2026-04-21 08:58 33.41783 108.37072 35115 ft 490 kts 21°
2026-04-21 08:58 33.47900 108.40702 35127 ft 490 kts 21°
2026-04-21 08:59 33.54013 108.44339 35143 ft 490 kts 21°
2026-04-21 08:59 33.60113 108.47985 35160 ft 490 kts 21°
2026-04-21 09:00 33.66226 108.51644 35159 ft 492 kts 22°
2026-04-21 09:00 33.72353 108.55307 35177 ft 492 kts 21°
2026-04-21 09:01 33.78492 108.58980 35175 ft 493 kts 21°
2026-04-21 09:01 33.84637 108.62668 35207 ft 494 kts 22°
2026-04-21 09:02 33.90786 108.66370 35217 ft 495 kts 22°
2026-04-21 09:02 33.96948 108.70081 35213 ft 495 kts 22°
2026-04-21 09:03 34.06197 108.75653 35238 ft 496 kts 21°
2026-04-21 09:03 34.12331 108.79361 35235 ft 496 kts 22°
2026-04-21 09:04 34.18497 108.83101 35254 ft 495 kts 21°
2026-04-21 09:04 34.24895 108.85754 35255 ft 480 kts
2026-04-21 09:05 34.31482 108.86843 35257 ft 478 kts
2026-04-21 09:05 34.38083 108.87920 35240 ft 479 kts
2026-04-21 09:06 34.44685 108.89018 35232 ft 479 kts
2026-04-21 09:06 34.51299 108.90106 35249 ft 480 kts
2026-04-21 09:07 34.57924 108.91193 35224 ft 481 kts
2026-04-21 09:07 34.64490 108.93168 35215 ft 490 kts 11°
2026-04-21 09:08 34.71033 108.95534 35215 ft 491 kts 11°
2026-04-21 09:08 34.76472 108.97505 35241 ft 491 kts 10°
2026-04-21 09:09 34.83036 108.99883 35215 ft 493 kts 11°
2026-04-21 09:09 34.89595 109.02410 35211 ft 495 kts 12°
2026-04-21 09:10 34.96148 109.05046 35212 ft 496 kts 12°
2026-04-21 09:10 35.02714 109.07675 35219 ft 497 kts 12°
2026-04-21 09:11 35.09284 109.10279 35225 ft 497 kts 12°
2026-04-21 09:11 35.15862 109.12883 35206 ft 497 kts 13°
2026-04-21 09:12 35.22436 109.15493 35227 ft 497 kts 12°
2026-04-21 09:12 35.29027 109.18116 35217 ft 498 kts 12°
2026-04-21 09:13 35.35622 109.20741 35213 ft 499 kts 12°
2026-04-21 09:13 35.42237 109.23371 35216 ft 500 kts 12°
2026-04-21 09:14 35.48865 109.26015 35238 ft 501 kts 12°
2026-04-21 09:14 35.55489 109.28680 35233 ft 501 kts 12°
2026-04-21 09:15 35.62119 109.31347 35228 ft 501 kts 12°
2026-04-21 09:15 35.68750 109.34012 35248 ft 501 kts 12°
2026-04-21 09:16 35.75228 109.37256 35229 ft 510 kts 26°
2026-04-21 09:16 35.78151 109.39747 35225 ft 516 kts 37°
2026-04-21 09:16 35.80750 109.42827 35221 ft 519 kts 47°
2026-04-21 09:17 35.85078 109.49981 35190 ft 521 kts 53°
2026-04-21 09:17 35.89340 109.57233 35193 ft 523 kts 53°
2026-04-21 09:18 35.93610 109.64499 35195 ft 524 kts 53°
2026-04-21 09:18 35.97884 109.71793 35194 ft 524 kts 53°
2026-04-21 09:19 36.02154 109.79100 35190 ft 525 kts 53°
2026-04-21 09:19 36.06415 109.86423 35209 ft 525 kts 53°
2026-04-21 09:20 36.10683 109.93769 35205 ft 526 kts 53°
2026-04-21 09:20 36.14943 110.01114 35210 ft 526 kts 53°
2026-04-21 09:21 36.19201 110.08476 35203 ft 526 kts 53°
2026-04-21 09:21 36.23459 110.15847 35208 ft 526 kts 54°
2026-04-21 09:22 36.27708 110.23239 35190 ft 527 kts 54°
2026-04-21 09:22 36.31947 110.30647 35192 ft 527 kts 54°
2026-04-21 09:23 36.36188 110.38064 35183 ft 527 kts 54°
2026-04-21 09:23 36.40435 110.45495 35208 ft 527 kts 54°
2026-04-21 09:24 36.44681 110.52926 35175 ft 528 kts 54°
2026-04-21 09:24 36.48931 110.60388 35167 ft 529 kts 54°
2026-04-21 09:25 36.53173 110.67868 35166 ft 530 kts 54°
2026-04-21 09:25 36.57419 110.75360 35187 ft 530 kts 54°
2026-04-21 09:26 36.61667 110.82876 35168 ft 531 kts 54°
2026-04-21 09:26 36.65905 110.90392 35169 ft 531 kts 54°
2026-04-21 09:27 36.70150 110.97933 35159 ft 531 kts 54°
2026-04-21 09:27 36.74915 111.04936 35162 ft 530 kts 46°
2026-04-21 09:28 36.79816 111.11729 35163 ft 530 kts 46°
2026-04-21 09:28 36.84742 111.18574 35151 ft 530 kts 46°
2026-04-21 09:29 36.89673 111.25431 35145 ft 531 kts 46°
2026-04-21 09:29 36.94599 111.32300 35157 ft 531 kts 46°
2026-04-21 09:30 36.99518 111.39173 35152 ft 531 kts 46°
2026-04-21 09:30 37.04429 111.46063 35151 ft 530 kts 46°
2026-04-21 09:31 37.09336 111.52960 35156 ft 530 kts 46°
2026-04-21 09:31 37.14282 111.59905 35161 ft 531 kts 46°
2026-04-21 09:32 37.19199 111.66832 35153 ft 532 kts 47°
2026-04-21 09:32 37.24067 111.73733 35135 ft 532 kts 49°
2026-04-21 09:33 37.28053 111.81534 35119 ft 532 kts 64°
2026-04-21 09:33 37.31430 111.89824 35121 ft 533 kts 63°
2026-04-21 09:34 37.34828 111.98107 35119 ft 534 kts 63°
2026-04-21 09:34 37.38235 112.06410 35116 ft 534 kts 63°
2026-04-21 09:35 37.41625 112.14728 35109 ft 535 kts 63°
2026-04-21 09:35 37.45004 112.23067 35132 ft 535 kts 63°
2026-04-21 09:36 37.48378 112.31416 35122 ft 535 kts 63°
2026-04-21 09:36 37.51758 112.39781 35115 ft 536 kts 63°
2026-04-21 09:37 37.55131 112.48158 35110 ft 536 kts 63°
2026-04-21 09:37 37.58495 112.56544 35142 ft 536 kts 63°
2026-04-21 09:38 37.61862 112.64940 35126 ft 537 kts 63°
2026-04-21 09:38 37.65235 112.73351 35120 ft 537 kts 63°
2026-04-21 09:39 37.68609 112.81780 35107 ft 538 kts 63°
2026-04-21 09:39 37.71966 112.90211 35110 ft 538 kts 63°
2026-04-21 09:40 37.75328 112.98662 35123 ft 539 kts 63°
2026-04-21 09:40 37.78685 113.07130 35102 ft 539 kts 63°
2026-04-21 09:41 37.82039 113.15613 35085 ft 539 kts 63°
2026-04-21 09:41 37.85384 113.24098 35091 ft 539 kts 63°
2026-04-21 09:42 37.88726 113.32599 35114 ft 540 kts 63°
2026-04-21 09:42 37.92060 113.41115 35091 ft 540 kts 63°
2026-04-21 09:43 37.95389 113.49634 35079 ft 540 kts 63°
2026-04-21 09:43 37.98709 113.58172 35076 ft 540 kts 63°
2026-04-21 09:44 38.02023 113.66724 35100 ft 540 kts 63°
2026-04-21 09:44 38.05328 113.75285 35086 ft 540 kts 63°
2026-04-21 09:45 38.08624 113.83852 35076 ft 540 kts 63°
2026-04-21 09:45 38.11919 113.92419 35069 ft 540 kts 63°
2026-04-21 09:46 38.15209 114.00998 35059 ft 540 kts 63°
2026-04-21 09:46 38.18485 114.09595 35071 ft 541 kts 63°
2026-04-21 09:47 38.21767 114.18191 35071 ft 540 kts 63°
2026-04-21 09:47 38.25057 114.26785 35067 ft 540 kts 63°
2026-04-21 09:48 38.28315 114.35325 35067 ft 540 kts 63°
2026-04-21 09:48 38.31587 114.43934 35074 ft 540 kts 63°
2026-04-21 09:49 38.34848 114.52541 35067 ft 539 kts 63°
2026-04-21 09:49 38.38095 114.61150 35062 ft 539 kts 63°
2026-04-21 09:50 38.41340 114.69770 35060 ft 539 kts 63°
2026-04-21 09:50 38.44574 114.78393 35060 ft 539 kts 63°
2026-04-21 09:51 38.47797 114.87029 35059 ft 539 kts 63°
2026-04-21 09:51 38.51021 114.95667 35061 ft 539 kts 63°
2026-04-21 09:52 38.54243 115.04299 35050 ft 538 kts 63°
2026-04-21 09:52 38.57442 115.12943 35075 ft 538 kts 64°
2026-04-21 09:53 38.60620 115.21617 35071 ft 539 kts 64°
2026-04-21 09:53 38.63284 115.28885 35068 ft 539 kts 64°
2026-04-21 09:54 38.66469 115.37548 35048 ft 538 kts 63°
2026-04-21 09:54 38.69639 115.46169 35072 ft 539 kts 63°
2026-04-21 09:55 38.72976 115.54747 35065 ft 537 kts 57°
2026-04-21 09:55 38.76785 115.62985 35059 ft 538 kts 57°
2026-04-21 09:56 38.80581 115.71243 35049 ft 538 kts 57°
2026-04-21 09:56 38.84373 115.79519 35067 ft 538 kts 57°
2026-04-21 09:57 38.88159 115.87804 35046 ft 539 kts 57°
2026-04-21 09:57 38.91949 115.96107 35054 ft 539 kts 57°
2026-04-21 09:58 38.95729 116.04411 35048 ft 539 kts 57°
2026-04-21 09:58 38.99508 116.12734 35057 ft 539 kts 57°
2026-04-21 09:59 39.03283 116.21071 35046 ft 540 kts 57°
2026-04-21 09:59 39.07060 116.29423 35042 ft 540 kts 57°
2026-04-21 10:00 39.10829 116.37791 35072 ft 541 kts 57°
2026-04-21 10:00 39.14587 116.46181 35063 ft 541 kts 57°
2026-04-21 10:01 39.16225 116.50530 35054 ft 544 kts 68°
2026-04-21 10:01 39.17364 116.55203 35049 ft 545 kts 77°
2026-04-21 10:01 39.18053 116.64849 35036 ft 540 kts 97°
2026-04-21 10:02 39.16116 116.79010 35034 ft 535 kts 106°
2026-04-21 10:03 39.14640 116.88415 35038 ft 536 kts 106°
2026-04-21 10:03 39.13158 116.97832 35046 ft 536 kts 106°
2026-04-21 10:04 39.11763 117.07280 35055 ft 537 kts 104°
2026-04-21 10:04 39.10558 117.16785 35074 ft 538 kts 103°
2026-04-21 10:05 39.09368 117.26307 35052 ft 538 kts 103°
2026-04-21 10:05 39.07977 117.35748 35043 ft 533 kts 111°
2026-04-21 10:06 39.05205 117.44451 35044 ft 522 kts 123°
2026-04-21 10:06 39.02043 117.52871 35041 ft 524 kts 122°
2026-04-21 10:07 38.98894 117.61320 35044 ft 524 kts 122°
2026-04-21 10:07 38.95731 117.69758 35028 ft 524 kts 122°
2026-04-21 10:08 38.92551 117.78185 35051 ft 524 kts 122°
2026-04-21 10:08 38.89367 117.86602 35060 ft 523 kts 122°
2026-04-21 10:09 38.86185 117.94994 35063 ft 523 kts 122°
2026-04-21 10:09 38.83217 118.03547 35071 ft 530 kts 113°
2026-04-21 10:10 38.81560 118.12763 35061 ft 536 kts 105°
2026-04-21 10:10 38.80235 118.22166 35061 ft 539 kts 96°
2026-04-21 10:10 38.80336 118.26975 35061 ft 541 kts 82°
2026-04-21 10:11 38.81213 118.31649 35091 ft 539 kts 67°
2026-04-21 10:11 38.82845 118.35946 35071 ft 532 kts 52°
2026-04-21 10:11 38.85089 118.39651 35049 ft 522 kts 39°
2026-04-21 10:11 38.87788 118.42678 35051 ft 510 kts 26°
2026-04-21 10:12 38.90796 118.44949 35049 ft 495 kts 14°
2026-04-21 10:12 38.97102 118.48429 35078 ft 494 kts 13°
2026-04-21 10:13 39.03547 118.51010 35051 ft 480 kts
2026-04-21 10:13 39.10065 118.52972 35046 ft 482 kts
2026-04-21 10:14 39.16606 118.54954 35072 ft 483 kts
2026-04-21 10:14 39.23156 118.56954 35057 ft 484 kts
2026-04-21 10:15 39.29723 118.58961 35053 ft 485 kts
2026-04-21 10:15 39.36298 118.60977 35083 ft 486 kts
2026-04-21 10:16 39.42865 118.63004 35076 ft 485 kts
2026-04-21 10:16 39.49434 118.65026 35067 ft 485 kts
2026-04-21 10:17 39.56002 118.67036 35060 ft 485 kts
2026-04-21 10:17 39.62576 118.69063 35057 ft 485 kts
2026-04-21 10:18 39.69139 118.71107 35047 ft 485 kts
2026-04-21 10:18 39.72413 118.72316 35078 ft 496 kts 10°
2026-04-21 10:18 39.75589 118.74197 35068 ft 509 kts 20°
2026-04-21 10:19 39.81491 118.79511 35051 ft 518 kts 27°
2026-04-21 10:19 39.87328 118.85014 35070 ft 518 kts 27°
2026-04-21 10:20 39.93180 118.90508 35043 ft 519 kts 27°
2026-04-21 10:20 39.99040 118.96021 35021 ft 519 kts 27°
2026-04-21 10:21 40.04890 119.01544 35041 ft 520 kts 26°
2026-04-21 10:21 40.10747 119.07093 35017 ft 520 kts 26°
2026-04-21 10:22 40.16612 119.12663 35007 ft 521 kts 26°
2026-04-21 10:22 40.22473 119.18233 35027 ft 521 kts 26°
2026-04-21 10:23 40.28365 119.23768 35002 ft 521 kts 25°
2026-04-21 10:23 40.34279 119.29257 35050 ft 521 kts 25°
2026-04-21 10:24 40.40194 119.34764 35022 ft 521 kts 25°
2026-04-21 10:24 40.46105 119.40290 35012 ft 522 kts 25°
2026-04-21 10:25 40.52007 119.45838 35018 ft 522 kts 25°
2026-04-21 10:25 40.57901 119.51404 35001 ft 522 kts 25°
2026-04-21 10:26 40.63801 119.56972 35019 ft 522 kts 24°
2026-04-21 10:26 40.69703 119.62547 34984 ft 522 kts 24°
2026-04-21 10:27 40.75608 119.68133 34979 ft 522 kts 25°
2026-04-21 10:27 40.81467 119.73701 34963 ft 523 kts 24°
2026-04-21 10:28 40.87355 119.79313 34947 ft 522 kts 24°
2026-04-21 10:28 40.93251 119.84936 34935 ft 522 kts 24°
2026-04-21 10:29 40.99139 119.90568 34964 ft 522 kts 24°
2026-04-21 10:29 41.05017 119.96206 34961 ft 522 kts 24°
2026-04-21 10:30 41.10896 120.01850 34956 ft 522 kts 24°
2026-04-21 10:30 41.16779 120.07502 34939 ft 522 kts 24°
2026-04-21 10:31 41.22658 120.13185 34931 ft 523 kts 24°
2026-04-21 10:31 41.28524 120.18866 34954 ft 521 kts 23°
2026-04-21 10:32 41.34372 120.24525 34820 ft 520 kts 24°
2026-04-21 10:32 41.37246 120.27316 34439 ft 517 kts 24°
2026-04-21 10:32 41.40142 120.30137 34137 ft 514 kts 24°
2026-04-21 10:32 41.43018 120.32946 33776 ft 512 kts 24°
2026-04-21 10:33 41.45884 120.35754 33368 ft 512 kts 25°
2026-04-21 10:33 41.48578 120.38950 32955 ft 527 kts 37°
2026-04-21 10:33 41.50888 120.42830 32561 ft 542 kts 49°
2026-04-21 10:33 41.52689 120.47300 32202 ft 554 kts 61°
2026-04-21 10:34 41.53890 120.52222 31816 ft 564 kts 74°
2026-04-21 10:34 41.54428 120.57430 31433 ft 569 kts 84°
2026-04-21 10:34 41.54709 120.62705 31053 ft 570 kts 83°
2026-04-21 10:34 41.54985 120.67978 30679 ft 569 kts 83°
2026-04-21 10:35 41.55254 120.73246 30317 ft 569 kts 83°
2026-04-21 10:35 41.55524 120.78511 29941 ft 568 kts 83°
2026-04-21 10:35 41.55794 120.83769 29555 ft 567 kts 83°
2026-04-21 10:35 41.56061 120.89019 29128 ft 567 kts 83°
2026-04-21 10:36 41.56326 120.94263 28718 ft 566 kts 83°
2026-04-21 10:36 41.56587 120.99504 28336 ft 565 kts 82°
2026-04-21 10:36 41.56844 121.04741 27949 ft 566 kts 83°
2026-04-21 10:36 41.57101 121.09994 27552 ft 566 kts 83°
2026-04-21 10:37 41.57352 121.15236 27148 ft 566 kts 82°
2026-04-21 10:37 41.57597 121.20474 26766 ft 565 kts 83°
2026-04-21 10:37 41.57798 121.25710 26392 ft 564 kts 83°
2026-04-21 10:37 41.57954 121.30937 26011 ft 563 kts 84°
2026-04-21 10:38 41.58079 121.36162 25639 ft 563 kts 84°
2026-04-21 10:38 41.58153 121.39622 25399 ft 562 kts 84°
2026-04-21 10:38 41.58307 121.46603 24916 ft 562 kts 84°
2026-04-21 10:38 41.58431 121.51811 24547 ft 560 kts 83°
2026-04-21 10:39 41.58519 121.55252 24338 ft 560 kts 83°
2026-04-21 10:39 41.58661 121.60446 23991 ft 559 kts 83°
2026-04-21 10:39 41.58805 121.65618 23648 ft 557 kts 83°
2026-04-21 10:39 41.58943 121.70782 23302 ft 554 kts 83°
2026-04-21 10:40 41.59073 121.75908 22885 ft 550 kts 83°
2026-04-21 10:40 41.59195 121.80987 22468 ft 544 kts 83°
2026-04-21 10:40 41.59312 121.86006 22070 ft 538 kts 83°
2026-04-21 10:40 41.59429 121.90978 21668 ft 532 kts 83°
2026-04-21 10:41 41.59547 121.95892 21274 ft 527 kts 83°
2026-04-21 10:41 41.59660 122.00757 20885 ft 521 kts 83°
2026-04-21 10:41 41.59766 122.05565 20500 ft 515 kts 83°
2026-04-21 10:41 41.59808 122.10303 20109 ft 506 kts 88°
2026-04-21 10:42 41.59419 122.14930 19731 ft 496 kts 95°
2026-04-21 10:42 41.58924 122.19424 19467 ft 482 kts 95°
2026-04-21 10:42 41.58438 122.23759 19493 ft 461 kts 96°
2026-04-21 10:42 41.57971 122.27901 19481 ft 442 kts 96°
2026-04-21 10:43 41.57525 122.31870 19495 ft 423 kts 95°
2026-04-21 10:43 41.57098 122.35683 19493 ft 408 kts 95°
2026-04-21 10:43 41.56682 122.39427 19445 ft 420 kts 95°
2026-04-21 10:43 41.56251 122.43342 19154 ft 420 kts 95°
2026-04-21 10:44 41.55829 122.47134 18917 ft 417 kts 96°
2026-04-21 10:44 41.55401 122.50944 18676 ft 413 kts 96°
2026-04-21 10:44 41.54971 122.54719 18438 ft 409 kts 96°
2026-04-21 10:44 41.54540 122.58451 18200 ft 405 kts 97°
2026-04-21 10:45 41.54114 122.62147 17947 ft 401 kts 97°
2026-04-21 10:45 41.53697 122.65810 17671 ft 398 kts 97°
2026-04-21 10:45 41.53280 122.69455 17396 ft 396 kts 97°
2026-04-21 10:45 41.52862 122.73078 17124 ft 394 kts 97°
2026-04-21 10:46 41.52443 122.76684 16863 ft 392 kts 97°
2026-04-21 10:46 41.52028 122.80271 16598 ft 390 kts 97°
2026-04-21 10:46 41.51616 122.83839 16329 ft 388 kts 97°
2026-04-21 10:46 41.51203 122.87395 16066 ft 387 kts 97°
2026-04-21 10:47 41.50790 122.90941 15803 ft 387 kts 97°
2026-04-21 10:47 41.50377 122.94478 15545 ft 386 kts 97°
2026-04-21 10:47 41.49964 122.98007 15290 ft 384 kts 97°
2026-04-21 10:47 41.49548 123.01513 15037 ft 382 kts 98°
2026-04-21 10:48 41.49129 123.05008 14797 ft 381 kts 98°
2026-04-21 10:48 41.48714 123.08485 14545 ft 379 kts 98°
2026-04-21 10:48 41.48301 123.11948 14297 ft 377 kts 98°
2026-04-21 10:48 41.47886 123.15395 14052 ft 375 kts 98°
2026-04-21 10:49 41.47499 123.18829 13809 ft 374 kts 95°
2026-04-21 10:49 41.47414 123.22263 13575 ft 367 kts 85°
2026-04-21 10:49 41.47687 123.25589 13302 ft 356 kts 76°
2026-04-21 10:49 41.48271 123.28753 13032 ft 347 kts 70°
2026-04-21 10:50 41.48931 123.31815 12771 ft 340 kts 70°
2026-04-21 10:50 41.49570 123.34823 12507 ft 334 kts 70°
2026-04-21 10:50 41.50192 123.37777 12244 ft 329 kts 70°
2026-04-21 10:50 41.50906 123.40646 11984 ft 323 kts 62°
2026-04-21 10:51 41.51914 123.43292 11722 ft 319 kts 56°
2026-04-21 10:51 41.52978 123.45880 11583 ft 318 kts 56°
2026-04-21 10:51 41.54038 123.48472 11361 ft 318 kts 56°
2026-04-21 10:51 41.55089 123.51058 11113 ft 317 kts 57°
2026-04-21 10:52 41.56136 123.53641 10865 ft 316 kts 57°
2026-04-21 10:52 41.57240 123.56165 10621 ft 312 kts 49°
2026-04-21 10:52 41.58617 123.58360 10372 ft 308 kts 43°
2026-04-21 10:52 41.60035 123.60501 10125 ft 307 kts 43°
2026-04-21 10:53 41.61443 123.62642 9881 ft 306 kts 43°
2026-04-21 10:53 41.62847 123.64775 9629 ft 305 kts 43°
2026-04-21 10:53 41.64241 123.66899 9368 ft 301 kts 43°
2026-04-21 10:53 41.65612 123.68981 9094 ft 295 kts 43°
2026-04-21 10:54 41.66961 123.71015 8824 ft 289 kts 43°
2026-04-21 10:54 41.68282 123.73006 8570 ft 284 kts 43°
2026-04-21 10:54 41.69575 123.74965 8319 ft 278 kts 43°
2026-04-21 10:54 41.70873 123.76833 8057 ft 268 kts 32°
2026-04-21 10:55 41.72474 123.77800 7813 ft 244 kts 359°
2026-04-21 10:55 41.74051 123.77554 7577 ft 220 kts 330°
2026-04-21 10:55 41.75243 123.76480 7333 ft 196 kts 312°
2026-04-21 10:55 41.76230 123.75328 6977 ft 182 kts 313°
2026-04-21 10:56 41.77139 123.74205 6621 ft 173 kts 304°
2026-04-21 10:56 41.77745 123.72852 6150 ft 168 kts 287°
2026-04-21 10:56 41.77969 123.71364 5639 ft 164 kts 271°
2026-04-21 10:56 41.77813 123.69859 5138 ft 164 kts 254°
2026-04-21 10:57 41.77283 123.68508 4640 ft 166 kts 237°
2026-04-21 10:57 41.76526 123.67349 4142 ft 164 kts 234°
2026-04-21 10:57 41.75795 123.66241 3905 ft 154 kts 234°
2026-04-21 10:57 41.75088 123.65165 3882 ft 151 kts 234°
2026-04-21 10:58 41.74410 123.64135 3524 ft 142 kts 234°
2026-04-21 10:58 41.73762 123.63149 2999 ft 141 kts 233°
2026-04-21 10:58 41.73145 123.62213 2725 ft 126 kts 233°
2026-04-21 10:58 41.72583 123.61359 2507 ft 119 kts 233°
2026-04-21 10:59 41.72047 123.60544 2336 ft 115 kts 232°
2026-04-21 10:59 41.71518 123.59740 2166 ft 117 kts 232°
2026-04-21 10:59 41.70996 123.58947 2003 ft 111 kts 231°
2026-04-21 10:59 41.70495 123.58186 1860 ft 108 kts 231°
2026-04-21 11:00 41.69986 123.57413 1714 ft 113 kts 231°
2026-04-21 11:00 41.69467 123.56625 1564 ft 113 kts 230°
2026-04-21 11:00 41.68946 123.55836 1402 ft 114 kts 227°
2026-04-21 11:00 41.68412 123.55027 1248 ft 120 kts 229°
2026-04-21 11:01 41.67857 123.54187 1099 ft 122 kts 229°
2026-04-21 11:01 41.67284 123.53318 950 ft 126 kts 228°
2026-04-21 11:01 41.66690 123.52420 732 ft 131 kts 230°
2026-04-21 11:02 41.65464 123.50563 406 ft 134 kts 228°
2026-04-21 11:02 41.64849 123.49631 225 ft 133 kts 228°
2026-04-21 11:02 41.64307 123.48808 205 ft 90 kts 228°
2026-04-21 11:02 41.64016 123.48366 200 ft 33 kts 229°
2026-04-21 11:03 41.63896 123.48188 207 ft 24 kts 228°
2026-04-21 11:03 41.63786 123.48030 214 ft 22 kts 218°
2026-04-21 11:03 41.63656 123.47938 203 ft 21 kts 201°
2026-04-21 11:03 41.63536 123.47901 200 ft 15 kts 160°
2026-04-21 11:04 41.63538 123.48005 206 ft 13 kts 51°
2026-04-21 11:04 41.63526 123.48095 209 ft 10 kts 136°
2026-04-21 11:04 41.63474 123.48159 204 ft 11 kts 138°
2026-04-21 11:04 41.63438 123.48257 204 ft 12 kts 85°
2026-04-21 11:05 41.63457 123.48361 210 ft 11 kts 59°
2026-04-21 11:05 41.63503 123.48435 209 ft 11 kts 48°
2026-04-21 11:05 41.63558 123.48518 200 ft 9 kts 49°
2026-04-21 11:05 41.63552 123.48571 206 ft 6 kts 136°
2026-04-21 11:06 41.63525 123.48603 210 ft 5 kts 138°
2026-04-21 11:06 41.63509 123.48622 204 ft 0 kts 139°